Regional Weather Roundup
Issued by NWS

Home | Current Version | Previous Version | Graphics & Text | Print | Product List | Glossary On
Versions: 1 2 3 4 5 6 7 8 9 10 11 12 13 14 15 16 17 18 19 20 21 22 23 24 25 26 27 28 29 30 31 32 33 34 35 36 37 38 39 40 41 42 43 44 45 46 47 48 49 50
410
ASUS44 KLIX 260701
RWRLA
LOUISIANA WEATHER ROUNDUP
NATIONAL WEATHER SERVICE NEW ORLEANS LA
200 AM CDT SUN OCT 26 2014

NOTE: "FAIR" INDICATES FEW OR NO CLOUDS BELOW 12,000 FEET WITH NO
      SIGNIFICANT WEATHER AND/OR OBSTRUCTIONS TO VISIBILITY.
      SKY/WX - SKY CONDITION AND SIGNIFICANT WEATHER.
      TMP - AIR TEMPERATURE.    DP   - DEWPOINT TEMPERATURE.
      RH  - RELATIVE HUMIDITY.  PRES - PRESSURE.
      HX  - HEAT INDEX.         WCI  - WIND CHILL INDEX.

*  THESE STATIONS ARE NOT NWS OR FAA STATIONS AND ARE NOT UNDER
   NWS QUALITY CONTROL.

LAZ040-048-061>063-065-066-069-260800-
SOUTHEAST LOUISIANA

CITY           SKY/WX    TMP DP  RH WIND       PRES   REMARKS
N.O. AUDUBON     N/A     64  61  89 MISG        N/A
N.O. INTL ARPT CLEAR     63  59  87 CALM      30.06F
N.O. LAKEFRONT CLEAR     70  61  73 N8        30.06F
N.O. DOWNTOWN* FAIR      70  57  64 CALM      30.06F
SLIDELL        CLEAR     57  53  86 CALM      30.05F
BATON ROUGE    CLEAR     56  54  93 CALM      30.06F
BOOTHVILLE     CLEAR     66  63  90 CALM      30.05F
BELLE CHASSE   CLEAR     57  53  86 CALM      30.05F
BOGALUSA*        N/A     56  53  89 CALM      30.07F
NEW ROADS*     FAIR      55  54  97 CALM      30.07S
GONZALES*      FAIR      56  56 100 CALM      30.06S
HAMMOND*       NOT AVBL
HOUMA*         CLEAR     55  55  98 CALM      30.06F FOG
PORT FOURCHON* SUNNY     68  61  77 NW6       30.09S

$$

LAZ041-044-053-054-260800-
SOUTHWEST LOUISIANA

CITY           SKY/WX    TMP DP  RH WIND       PRES   REMARKS
LAKE CHARLES   CLEAR     57  55  93 CALM      30.07F
LAFAYETTE      CLEAR     62  57  83 CALM      30.07F
PATTERSON      CLEAR     57  55  94 CALM      30.09F
SALT POINT       N/A     67  63  87 CALM      30.07F
NEW IBERIA     CLEAR     56  53  90 CALM      30.08F
CHENAULT AIRPK CLEAR     57  56  95 CALM      30.08S

$$

LAZ027-028-260800-
CENTRAL LOUISIANA

CITY           SKY/WX    TMP DP  RH WIND       PRES   REMARKS
FORT POLK      CLEAR     58  54  87 VRB1      30.07F
ALEXANDRIA INT CLEAR     57  57 100 CALM      30.05S FOG
ALEXANDRIA     CLEAR     53  53 100 W3        30.06F

$$

LAZ001-002-260800-
NORTHWEST LOUISIANA

CITY           SKY/WX    TMP DP  RH WIND       PRES   REMARKS
SHREVEPORT     CLEAR     64  62  93 CALM      30.04F
BARKSDALE AFB  CLEAR     62  60  95 SE5       30.05S
DTN SHREVEPORT CLEAR     67  60  78 S3        30.05S

$$

LAZ014-016-260800-
NORTHEAST LOUISIANA

CITY           SKY/WX    TMP DP  RH WIND       PRES   REMARKS
MONROE         CLEAR     59  57  93 CALM      30.06S
TALLULAH       CLEAR     56  54  93 CALM      30.05F

$$




USA.gov is the U.S. government's official web portal to all federal, state and local government web resources and services.